Location: Babice
(50.3480°N, 22.9363°E)
Time: 12:47:27
(UTC+00:00)

Abrixas rocket - Pass Details

Date: 14 July 2020
Orbit: 339 x 347 km, 48.4° (Epoch: 07 August)

Event Time Altitude Azimuth Distance (km) Brightness Sun altitude
Exits shadow 01:34:31 - 274° (W) 1,994 5.3 -7.8°
Reaches altitude 10° 01:36:24 10° 261° (W) 1,284 4.3 -7.6°
Maximum altitude 01:38:47 24° 205° (SSW) 761 3.0 -7.3°
Drops below altitude 10° 01:41:10 10° 148° (SSE) 1,278 4.6 -7.0°
Sets 01:43:22 0° 134° (SE) 2,114 5.8 -6.8°
